This is the latest recevied weather packets stored in our database for station/object NO3U. If no packets are shown the sender has not sent any weather packets the latest 10 day(s).
| Time | Temp. | Humidity | Pressure | Rain* | Wind** | Luminosity | Snow |
|---|---|---|---|---|---|---|---|
| 1777647060 | 8.89° C | 84% | 1013.5 hPa | 0 mm | - | 69 W/m² | - |
| 1777646755 | 8.89° C | 84% | 1013.6 hPa | 0 mm | - | 152 W/m² | - |
| 1777646450 | 8.89° C | 83% | 1013.6 hPa | 0 mm | - | 162 W/m² | - |
| 1777646147 | 8.89° C | 85% | 1013.4 hPa | 0 mm | - | 184 W/m² | - |
| 1777645844 | 8.89° C | 83% | 1013.5 hPa | 0 mm | - | 147 W/m² | - |
| 1777645541 | 8.89° C | 85% | 1013.5 hPa | 0 mm | - | 114 W/m² | - |
| 1777645237 | 8.89° C | 83% | 1013.6 hPa | 0 mm | - | 145 W/m² | - |
| 1777644933 | 8.89° C | 84% | 1013.4 hPa | 0 mm | - | 297 W/m² | - |
| 1777644631 | 8.33° C | 86% | 1013.3 hPa | 0 mm | - | 221 W/m² | - |
| 1777644327 | 7.78° C | 86% | 1013.2 hPa | 0 mm | - | 155 W/m² | - |
| 1777644023 | 7.78° C | 88% | 1013.4 hPa | 0 mm | - | 122 W/m² | - |
| 1777643720 | 7.22° C | 89% | 1013.3 hPa | 0 mm | - | 92 W/m² | - |
| 1777643418 | 7.22° C | 90% | 1013.5 hPa | 0 mm | - | 135 W/m² | - |
| 1777643114 | 7.22° C | 89% | 1013.6 hPa | 0 mm | - | 119 W/m² | - |
| 1777642811 | 6.67° C | 90% | 1013.7 hPa | 0 mm | - | 108 W/m² | - |
| 1777642508 | 6.67° C | 90% | 1013.6 hPa | 0 mm | - | 58 W/m² | - |
| 1777642204 | 6.67° C | 91% | 1013.8 hPa | 0 mm | - | 58 W/m² | - |
| 1777641901 | 6.67° C | 90% | 1013.8 hPa | 0 mm | - | 45 W/m² | - |
| 1777641596 | 6.11° C | 91% | 1013.7 hPa | 0 mm | - | 53 W/m² | - |
| 1777641296 | 6.11° C | 94% | 1013.5 hPa | 0 mm | - | 74 W/m² | - |
| 1777640993 | 5.56° C | 95% | 1013.5 hPa | 0 mm | - | 53 W/m² | - |
| 1777640689 | 5.56° C | 99% | 1013.7 hPa | 0 mm | - | 62 W/m² | - |
| 1777640385 | 5.56° C | 99% | 1013.8 hPa | 0 mm | - | 46 W/m² | - |
| 1777640083 | 5° C | 99% | 1013.7 hPa | 0 mm | - | 61 W/m² | - |
| 1777639779 | 5° C | 99% | 1013.7 hPa | 0 mm | - | 67 W/m² | - |
* Rain latest hour (hover to see other rain measurements)
** Current wind speed in m/s (hover to see current wind gust speed)